DECAYED

STARLINK-1396, 45681 (Decayed)

Orbit data source: Space-Track

STARLINK-1396, 45681 was a payload satellite owned by SpaceX/Seattle (US) in LEO that was launched on Thu, 04 Jun 2020 UTC via an FALCON 9 launch vehicle from the Air Force Eastern Test Range (AFETR). Payloads include a variety of satellites, spacecraft, and rockets equipped with specific instruments for various scientific and technological missions. These include communications satellites like Starlink; space stations such as the ISS; scientific satellites like the Hubble; Earth observation satellites from companies like Planet Labs, Umbra, and HawkEye 360; GPS; miniature CubeSats for education and research; and military/defense satellites.

Not visible in the next 10 days
STARLINK-1396 details
Identifier
45681, 2020-035AA
Orbit
Decayed
Last TLE update6 months ago
Origin
Flag of USSpaceX/Seattle (US)
ManufacturerSpaceX/Seattle
MissionDecayed Commercial Communications
Bus & MotorSTARLINK, Unknown motor
Mass260 kg wet, ~248 kg dry
Launch date (UTC)
2020-06-04 (5 years ago)
Launch vehicle
FALCON 9
Launch site
Air Force Eastern Test Range (AFETR)
Object type
Payload
Rocket body
Debris
Shape & HBRBox + 1 Pan, 8.86 m
Radar Cross Section13.562 m², Large (>1 m²)

Expand to show TLE details & history

TLE from 6 months ago
0 STARLINK-1396
1 45681U 20035AA  24188.41185093  .20957709  12377-4  19423-2 0  9992
2 45681  53.0136 229.7481 0005246 322.1080  52.9322 16.37950032227044
Epoch: 2024-07-06T09:53Z
Definitive object data (Epoch: 2024-07-06T09:53:03.92Z)
Latitude11.99569°
Longitude165.76258°
Altitude169.345 km
Speed7.808 km/s
True Right ascension15h 55m 36s
True Declination11° 55' 11"
Sunlit
Object was in full shadow at TLE epoch
Visualization observer readout
Observer readout values are unavailable because the object's trajectory could not be propagated. This is usually caused when the trajectory data is faulty or the object's orbit has decayed.
Visualization observer readout
Observer readout values are unavailable because the object's trajectory could not be propagated. This is usually caused when the trajectory data is faulty or the object's orbit has decayed.
Orbital elements
Apogee altitude174.99 km
Perigee altitude168.118 km
Semi-major axis6,549.691 km
Eccentricity0.0005246
Inclination53.0136°
RAAN229.7481°
Arg. of periapsis322.108°
True anomaly52.98019°
Mean anomaly52.9322°
Eccentric anomaly52.95619°
Mean motion4.0946 °/min
BSTAR0.0019423
Orbital period87.92 mins
Loading maneuver chart data...

STARLINK-1396 Visibility forecast

Observer location: undefined°, undefined

This satellite is decayed
Span
Click to sort rows by Start time (UTC) header in descending order
Start Az.
Max El. time (UTC)
Max El. Az.
Max El.
End time (UTC)
End Az.
|